This is the latest recevied weather packets stored in our database for station/object IK2ILW-6. If no packets are shown the sender has not sent any weather packets the latest 10 day(s).
| Time | Temp. | Humidity | Pressure | Rain* | Wind** | Luminosity | Snow |
|---|---|---|---|---|---|---|---|
| 1778226171 | 6.67° C | 88% | 1016.9 hPa | 0 mm | - | 244 W/m² | - |
| 1778225798 | 6.67° C | 86% | 1016.9 hPa | 1.02 mm | - | 571 W/m² | - |
| 1778225484 | 6.67° C | 82% | 1016.8 hPa | 1.02 mm | - | 555 W/m² | - |
| 1778225188 | 6.67° C | 79% | 1016.8 hPa | 1.02 mm | - | 570 W/m² | - |
| 1778224895 | 6.67° C | 76% | 1016.7 hPa | 1.02 mm | - | 550 W/m² | - |
| 1778224599 | 7.22° C | 76% | 1016.7 hPa | 1.02 mm | - | 568 W/m² | - |
| 1778224302 | 7.22° C | 75% | 1016.6 hPa | 1.02 mm | - | 512 W/m² | - |
| 1778223987 | 6.67° C | 74% | 1016.6 hPa | 1.02 mm | - | 482 W/m² | - |
| 1778223691 | 6.67° C | 73% | 1016.6 hPa | 1.02 mm | - | 469 W/m² | - |
| 1778223395 | 6.67° C | 76% | 1016.5 hPa | 1.02 mm | - | 468 W/m² | - |
| 1778223099 | 6.11° C | 73% | 1016.5 hPa | 1.02 mm | - | 439 W/m² | - |
| 1778222783 | 6.11° C | 72% | 1016.5 hPa | 1.02 mm | - | 441 W/m² | - |
| 1778222486 | 6.11° C | 74% | 1016.5 hPa | 0 mm | - | 427 W/m² | - |
| 1778222191 | 6.11° C | 68% | 1016.5 hPa | 0 mm | - | 397 W/m² | - |
| 1778221896 | 5.56° C | 70% | 1016.5 hPa | 0 mm | - | 380 W/m² | - |
| 1778221585 | 6.11° C | 69% | 1016.5 hPa | 0 mm | - | 364 W/m² | - |
| 1778221288 | 6.11° C | 72% | 1016.5 hPa | 0 mm | - | 302 W/m² | - |
| 1778220993 | 6.11° C | 74% | 1016.5 hPa | 0 mm | - | 304 W/m² | - |
| 1778220697 | 6.11° C | 76% | 1016.4 hPa | 0 mm | - | 315 W/m² | - |
| 1778220402 | 5.56° C | 74% | 1016.4 hPa | 0 mm | - | 292 W/m² | - |
| 1778220087 | 6.11° C | 72% | 1016.4 hPa | 0 mm | - | 255 W/m² | - |
| 1778219792 | 6.11° C | 75% | 1016.3 hPa | 0 mm | - | 243 W/m² | - |
| 1778219496 | 6.11° C | 71% | 1016.3 hPa | 0 mm | - | 225 W/m² | - |
| 1778219200 | 6.11° C | 72% | 1016.2 hPa | 0 mm | - | 237 W/m² | - |
| 1778218885 | 5.56° C | 73% | 1016.2 hPa | 0 mm | - | 239 W/m² | - |
* Rain latest hour (hover to see other rain measurements)
** Current wind speed in m/s (hover to see current wind gust speed)